Back to catalog

SEMI-1P

AliveScienceVLEO
NORAD 66298·PAYLOAD·🇹🇷 Turkey

Launched Nov 2, 2025 from Cape Canaveral Space Force Station

Loading…

Next Passes (next 24 hours)

TLE

FreshSource: Space-Track

Epoch: Sep 14, 2026, 08:23 UTC

1 66298U 25248F   26257.34983401  .00003487  00000-0  16320-3 0  9993
2 66298  45.3982   0.9084 0011328 175.4135 184.6858 15.21782270 48115

Track SEMI-1P in real time with AllMySat

Download on the App Store